Notices

What's New in latest Release from April 7th, 2021:

- Updated Glossary, including Speed of Maximum Gust, and Total Hourly Precipitation

- Updated national and regional climate services offices contacts and prices information

- Addition of station inventory lists for 1981-2010, 1971-2000, and 1961-1990 Normals.

If you haven't already, please take our survey and provide feedback about our website: https://eccc.sondage-survey.ca/f/LanguageSelection.aspx?s=442ca660-fcf1-47c0-95a9-59707d6fd709

Hourly Data Report for January 13, 2020

SATURNA ISLAND CS
BRITISH COLUMBIA
Current Station Operator: ECCC - MSC

48°47'02.067" N
123°02'41.082" W
24.40 m
1017101
71473
WEZ

Download Data

Hourly Data (January 2020)
Hourly Data Report for January 13, 2020
TIME
LST
Temp Definition
°C
Dew Point Definition
°C
Rel Hum Definition
%
Precip. Amount Definition
mm

Wind Dir Definition
10's deg

Wind Spd Definition
km/h
Visibility Definition
km
Stn Press Definition
kPa
Hmdx Definition


Wind Chill Definition


Weather Definition


00:00 -2.5 -6.5 74   7 51   100.52   -12 LegendNANA
01:00 -2.4 -6.3 75   6 46   100.56   -11 LegendNANA
02:00 -2.8 -6.8 74   7 47   100.66   -12 LegendNANA
03:00 -3.2 -7.7 71   7 47   100.75   -12 LegendNANA
04:00 -3.3 -7.5 73   7 50   100.79   -13 LegendNANA
05:00 -3.8 -8.0 72   7 54   100.85   -14 LegendNANA
06:00 -3.8 -7.8 74   7 57   100.82   -14 LegendNANA
07:00 -4.4 -8.0 76   7 49   100.88   -14 LegendNANA
08:00 -4.9 -7.9 79   7 51   100.90   -15 LegendNANA
09:00 -4.8 -7.5 81   7 43   100.94   -14 LegendNANA
10:00 -5.1 -8.6 76   6 44   101.00   -15 LegendNANA
11:00 -4.9 -8.0 79   6 40   101.01   -14 LegendNANA
12:00 -5.0 -8.2 78   6 37   100.99   -14 LegendNANA
13:00 -4.8 -8.0 79   6 36   100.96   -13 LegendNANA
14:00 -5.0 -7.4 83   6 39   100.92   -14 LegendNANA
15:00 -5.2 -7.4 85   6 37   100.92   -14 LegendNANA
16:00 -5.7 -8.4 81   6 36   100.92   -15 LegendNANA
17:00 -5.9 -9.0 78   5 38   100.91   -15 LegendNANA
18:00 -5.8 -8.7 80   6 36   100.88   -15 LegendNANA
19:00 -6.0 -9.5 77   5 39   100.85   -15 LegendNANA
20:00 -6.0 -9.7 75   6 37   100.86   -15 LegendNANA
21:00 -5.6 -9.2 76   5 40   100.86   -15 LegendNANA
22:00 -5.6 -9.3 76   7 39   100.85   -15 LegendNANA
23:00 -5.5 -9.2 75   6 39   100.85   -15 LegendNANA

Notes on Data Quality.

Legend

  • E = Estimated
  • M = Missing
  • NA = Not Available*
  • [empty] = Indicates an unobserved value
Date modified: